Weather History for KYKM - February, 2012

Change the Weather History Date:

Wednesday, February 15, 2012

  Actual Average Record
Temperature  
Mean Temperature 36 °F 36 °F  
Max Temperature 50 °F 46 °F 61 °F (1972)
Min Temperature 22 °F 26 °F 1 °F (1956)
Degree Days  
Heating Degree Days 29 29  
Month to date heating degree days 404 452  
Since 1 July heating degree days 3926 4170  
Cooling Degree Days 0 0  
Month to date cooling degree days 0 0  
Year to date cooling degree days 0 0  
Moisture  
Dew Point 24 °F    
Average Humidity 64    
Maximum Humidity 88    
Minimum Humidity 39    
Precipitation  
Precipitation 0.00 in 0.03 in 0.30 in (1982)
Month to date precipitation 0.33 0.43  
Year to date precipitation 1.51 1.57  
Snow  
Snow 0.00 in 0.10 in 0.90 in (1980)
Month to date snowfall 0.0 1.6  
Year to date snowfall 16.2 6.9  
Since 1 July snowfall 20.6 19.9  
Snow Depth 0.00 in    
Sea Level Pressure  
Sea Level Pressure 30.29 in    
Wind  
Wind Speed 4 mph (WNW)    
Max Wind Speed 10 mph    
Max Gust Speed 18 mph    
Visibility 10 miles    
Events      
T = Trace of Precipitation, MM = Missing Value Source: NWS Daily Summary

Daily Weather History Graph

Daily Weather History Graph

Search for Another Location

Airport or City:

Trip Planner

Search our weather history database for the weather conditions in past years. The results will help you decide how hot, cold, wet, or windy it might be!

Date:

Astronomy

Feb. 15, 2012 Rise Set
Actual Time 7:06 AM PST 5:26 PM PST
Civil Twilight 6:35 AM PST 5:57 PM PST
Nautical Twilight 6:00 AM PST 6:33 PM PST
Astronomical Twilight 5:25 AM PST 7:08 PM PST
Moon 2:16 AM PST (2/15) 11:14 AM PST (2/15)
Length of Visible Light 11h 22m
Length of Day
10h 20m
Last Quarter, 38% of the Moon is Illuminated
Feb 15
Last Quarter
Feb 21
New
Feb 29
First Quarter
Mar 8
Full
Mar 14
Last Quarter

Hourly Weather History & Observations

Time (PST) Temp. Windchill Dew Point Humidity Pressure Visibility Wind Dir Wind Speed Gust Speed Precip Events Conditions
12:53 AM 25.0 °F 19.3 °F 21.0 °F 85% 30.17 in 10.0 mi West 4.6 mph - N/A   Clear
1:53 AM 25.0 °F 20.7 °F 21.0 °F 85% 30.19 in 10.0 mi WNW 3.5 mph - N/A   Clear
2:53 AM 25.0 °F 17.1 °F 21.0 °F 85% 30.20 in 10.0 mi West 6.9 mph - N/A   Clear
3:53 AM 25.0 °F 20.7 °F 21.0 °F 85% 30.23 in 10.0 mi West 3.5 mph - N/A   Clear
4:53 AM 23.0 °F 14.7 °F 19.0 °F 85% 30.24 in 10.0 mi West 6.9 mph - N/A   Clear
5:53 AM 23.0 °F 15.8 °F 19.0 °F 85% 30.25 in 10.0 mi WSW 5.8 mph - N/A   Clear
6:53 AM 21.9 °F 13.4 °F 18.0 °F 85% 30.27 in 10.0 mi WNW 6.9 mph - N/A   Clear
7:53 AM 24.1 °F - 19.9 °F 84% 30.28 in 10.0 mi Calm Calm - N/A   Clear
8:53 AM 32.0 °F - 26.1 °F 79% 30.30 in 10.0 mi Calm Calm - N/A   Clear
9:53 AM 37.0 °F 33.3 °F 28.9 °F 73% 30.32 in 10.0 mi Variable 4.6 mph - N/A   Clear
10:53 AM 39.9 °F 36.7 °F 28.9 °F 65% 30.32 in 10.0 mi WSW 4.6 mph - N/A   Clear
11:53 AM 44.1 °F - 28.9 °F 55% 30.31 in 10.0 mi Calm Calm - N/A   Clear
12:53 PM 46.0 °F 44.8 °F 28.0 °F 50% 30.30 in 10.0 mi NE 3.5 mph - N/A   Clear
1:53 PM 48.9 °F - 27.0 °F 43% 30.29 in 10.0 mi NNE 4.6 mph - N/A   Clear
2:53 PM 48.9 °F - 27.0 °F 43% 30.29 in 10.0 mi Calm Calm - N/A   Clear
3:53 PM 48.9 °F - 25.0 °F 39% 30.30 in 10.0 mi Calm Calm - N/A   Clear
4:53 PM 46.9 °F - 28.0 °F 48% 30.30 in 10.0 mi SSE 3.5 mph - N/A   Clear
5:53 PM 37.9 °F - 27.0 °F 65% 30.33 in 10.0 mi Calm Calm - N/A   Clear
6:53 PM 34.0 °F 29.8 °F 25.0 °F 70% 30.35 in 10.0 mi West 4.6 mph - N/A   Clear
7:53 PM 32.0 °F - 25.0 °F 75% 30.35 in 10.0 mi Calm Calm - N/A   Clear
8:53 PM 28.0 °F 22.8 °F 23.0 °F 81% 30.36 in 10.0 mi WNW 4.6 mph - N/A   Clear
9:53 PM 28.0 °F 22.8 °F 24.1 °F 85% 30.36 in 10.0 mi WNW 4.6 mph - N/A   Clear
10:53 PM 26.1 °F 20.5 °F 21.9 °F 84% 30.36 in 8.0 mi West 4.6 mph - N/A   Clear
11:53 PM 26.1 °F 19.4 °F 21.9 °F 84% 30.36 in 8.0 mi WNW 5.8 mph - N/A   Clear